TEVEL2-3

Last updated on Sun Nov 16 2025 00:04:14 GMT+0000 (Coordinated Universal Time)

1 63218U 25052J 25319.22980554 .00019826 00000+0 78680-3 0 9996 2 63218 97.4085 211.0936 0004168 129.1244 231.0365 15.25382579 37387
UTC large
Height (km)
Speed (km/s)
/
Latitude / Longitude
Inclination (degrees)
Orbital Period (minutes)
Azimuth
Elevation
Range (km)
Doppler Factor

Next 0 passes for location: London (51.5072 / 0.1276)

Sorry there are no passes over London.